UAL292 KEWR-KPBI

Flight info

Callsign UAL292
Flight time N/A
Altitude 36000
Route ELVAE NECCK WHITE Q409 CRPLR EARZZ Q131 WAALT Y289 DULEE CLMNT2
Aircraft A319/M-SDE3FGHIRWY/LB1

Departure

Time 2026-04-23 02:04
Airport Newark Liberty International Airport (KEWR)

Arrival

Time N/A
Airport Palm Beach International Airport (KPBI)
Time Latitude Longitude Altitude Speed Heading
2026-04-23 01:23 40.69422 -74.17424 22 ft 0 kts 28°
2026-04-23 01:47 40.69416 -74.17428 22 ft 4 kts 28°
2026-04-23 01:48 40.69392 -74.17445 23 ft 3 kts 28°
2026-04-23 01:48 40.69371 -74.17456 23 ft 4 kts 348°
2026-04-23 01:48 40.69358 -74.17439 23 ft 4 kts 276°
2026-04-23 01:48 40.69357 -74.17404 25 ft 4 kts 274°
2026-04-23 01:49 40.69352 -74.17373 24 ft 4 kts 292°
2026-04-23 01:49 40.69340 -74.17349 24 ft 4 kts 354°
2026-04-23 01:49 40.69329 -74.17354 25 ft 4 kts 94°
2026-04-23 01:49 40.69333 -74.17382 24 ft 0 kts 103°
2026-04-23 01:56 40.69331 -74.17369 22 ft 3 kts 104°
2026-04-23 01:57 40.69318 -74.17324 24 ft 7 kts 114°
2026-04-23 01:57 40.69297 -74.17275 22 ft 0 kts 123°
2026-04-23 01:57 40.69288 -74.17257 22 ft 4 kts 124°
2026-04-23 01:57 40.69281 -74.17243 22 ft 3 kts 124°
2026-04-23 01:58 40.69263 -74.17209 22 ft 6 kts 125°
2026-04-23 01:58 40.69237 -74.17145 22 ft 10 kts 116°
2026-04-23 01:58 40.69220 -74.17060 22 ft 10 kts 77°
2026-04-23 01:58 40.69276 -74.17000 22 ft 12 kts 24°
2026-04-23 01:59 40.69356 -74.16951 22 ft 13 kts 26°
2026-04-23 01:59 40.69444 -74.16894 22 ft 15 kts 26°
2026-04-23 01:59 40.69544 -74.16830 22 ft 17 kts 26°
2026-04-23 01:59 40.69653 -74.16759 22 ft 18 kts 26°
2026-04-23 02:00 40.69759 -74.16694 21 ft 16 kts 25°
2026-04-23 02:00 40.69845 -74.16639 21 ft 13 kts 25°
2026-04-23 02:00 40.69932 -74.16584 21 ft 15 kts 25°
2026-04-23 02:00 40.70020 -74.16528 21 ft 12 kts 26°
2026-04-23 02:01 40.70064 -74.16492 23 ft 3 kts 64°
2026-04-23 02:01 40.70065 -74.16485 22 ft 0 kts 82°
2026-04-23 02:01 40.70065 -74.16484 22 ft 0 kts 82°
2026-04-23 02:01 40.70065 -74.16475 21 ft 2 kts 86°
2026-04-23 02:02 40.70065 -74.16441 20 ft 5 kts 92°
2026-04-23 02:02 40.70052 -74.16385 21 ft 8 kts 130°
2026-04-23 02:02 40.69994 -74.16384 19 ft 10 kts 207°
2026-04-23 02:02 40.69987 -74.16389 19 ft 0 kts 209°
2026-04-23 02:03 40.69984 -74.16391 19 ft 5 kts 209°
2026-04-23 02:03 40.69753 -74.16538 21 ft 69 kts 205°
2026-04-23 02:03 40.69133 -74.16931 22 ft 128 kts 206°
2026-04-23 02:03 40.68172 -74.17536 96 ft 171 kts 205°
2026-04-23 02:04 40.67083 -74.18245 651 ft 177 kts 205°
2026-04-23 02:04 40.65975 -74.18963 1396 ft 177 kts 206°
2026-04-23 02:04 40.64873 -74.19660 2099 ft 178 kts 208°
2026-04-23 02:04 40.63695 -74.20413 2394 ft 199 kts 208°
2026-04-23 02:05 40.62373 -74.21256 2578 ft 226 kts 208°
2026-04-23 02:05 40.60873 -74.22251 2567 ft 249 kts 212°
2026-04-23 02:05 40.59374 -74.23464 2792 ft 259 kts 215°
2026-04-23 02:05 40.57872 -74.24759 3771 ft 258 kts 217°
2026-04-23 02:06 40.56327 -74.26015 4671 ft 266 kts 210°
2026-04-23 02:06 40.54517 -74.26715 5498 ft 279 kts 191°
2026-04-23 02:06 40.52541 -74.26571 6342 ft 292 kts 169°
2026-04-23 02:06 40.50600 -74.25665 7132 ft 299 kts 161°
2026-04-23 02:07 40.48645 -74.24671 7958 ft 303 kts 162°
2026-04-23 02:07 40.46660 -74.23674 8768 ft 308 kts 162°
2026-04-23 02:07 40.44642 -74.22670 9577 ft 312 kts 163°
2026-04-23 02:07 40.42595 -74.21656 10296 ft 320 kts 163°
2026-04-23 02:08 40.40437 -74.20596 10542 ft 343 kts 162°
2026-04-23 02:08 40.38125 -74.19463 10730 ft 366 kts 162°
2026-04-23 02:08 40.35689 -74.18263 11109 ft 379 kts 162°
2026-04-23 02:08 40.33151 -74.17275 11697 ft 382 kts 172°
2026-04-23 02:09 40.30513 -74.16857 12317 ft 383 kts 182°
2026-04-23 02:09 40.27857 -74.17046 12938 ft 382 kts 193°
2026-04-23 02:09 40.25252 -74.17761 13559 ft 384 kts 198°
2026-04-23 02:09 40.22635 -74.18558 14143 ft 388 kts 198°
2026-04-23 02:10 40.19989 -74.19357 14704 ft 392 kts 198°
2026-04-23 02:10 40.17318 -74.20158 15263 ft 396 kts 198°
2026-04-23 02:10 40.14620 -74.20965 15823 ft 400 kts 198°
2026-04-23 02:10 40.11894 -74.21777 16384 ft 403 kts 198°
2026-04-23 02:11 40.09144 -74.22597 16945 ft 407 kts 198°
2026-04-23 02:11 40.06368 -74.23428 17509 ft 411 kts 198°
2026-04-23 02:11 40.03571 -74.24283 18067 ft 413 kts 200°
2026-04-23 02:11 40.00874 -74.25545 18596 ft 411 kts 210°
2026-04-23 02:12 39.98391 -74.27343 19108 ft 407 kts 219°
2026-04-23 02:12 39.96096 -74.29513 19627 ft 408 kts 222°
2026-04-23 02:12 39.93800 -74.31711 20144 ft 411 kts 222°
2026-04-23 02:12 39.91485 -74.33916 20638 ft 414 kts 221°
2026-04-23 02:13 39.89149 -74.36134 21106 ft 417 kts 221°
2026-04-23 02:13 39.86795 -74.38365 21558 ft 420 kts 221°
2026-04-23 02:13 39.84423 -74.40612 21989 ft 423 kts 221°
2026-04-23 02:13 39.82062 -74.42910 22405 ft 424 kts 225°
2026-04-23 02:14 39.79929 -74.45541 22834 ft 423 kts 231°
2026-04-23 02:14 39.77869 -74.48284 23263 ft 425 kts 231°
2026-04-23 02:14 39.75794 -74.51044 23671 ft 428 kts 231°
2026-04-23 02:14 39.74412 -74.52881 23901 ft 430 kts 231°
2026-04-23 02:15 39.70199 -74.58470 24564 ft 436 kts 231°
2026-04-23 02:15 39.68072 -74.61289 24895 ft 438 kts 231°
2026-04-23 02:15 39.65929 -74.64125 25224 ft 441 kts 231°
2026-04-23 02:16 39.63773 -74.66974 25548 ft 444 kts 231°
2026-04-23 02:16 39.61599 -74.69844 25871 ft 447 kts 231°
2026-04-23 02:16 39.59410 -74.72729 26194 ft 450 kts 231°
2026-04-23 02:16 39.57203 -74.75629 26507 ft 453 kts 231°
2026-04-23 02:17 39.54982 -74.78545 26819 ft 456 kts 232°
2026-04-23 02:17 39.52749 -74.81477 27124 ft 459 kts 232°
2026-04-23 02:17 39.50502 -74.84424 27421 ft 461 kts 232°
2026-04-23 02:17 39.48242 -74.87385 27709 ft 464 kts 232°
2026-04-23 02:18 39.45968 -74.90369 27969 ft 467 kts 232°
2026-04-23 02:18 39.43680 -74.93369 28246 ft 469 kts 232°
2026-04-23 02:18 39.41378 -74.96377 28522 ft 472 kts 232°
2026-04-23 02:18 39.39061 -74.99397 28795 ft 475 kts 232°
2026-04-23 02:19 39.36730 -75.02434 29081 ft 477 kts 232°
2026-04-23 02:19 39.34388 -75.05487 29386 ft 478 kts 232°
2026-04-23 02:19 39.32042 -75.08538 29737 ft 478 kts 232°
2026-04-23 02:19 39.29692 -75.11580 30107 ft 479 kts 232°
2026-04-23 02:20 39.27288 -75.14562 30415 ft 480 kts 230°
2026-04-23 02:20 39.24819 -75.17477 30760 ft 481 kts 229°
2026-04-23 02:20 39.22316 -75.20340 31113 ft 480 kts 228°
2026-04-23 02:20 39.19807 -75.23181 31463 ft 479 kts 228°
2026-04-23 02:21 39.17311 -75.26023 31831 ft 478 kts 229°
2026-04-23 02:21 39.14834 -75.28873 32205 ft 476 kts 229°
2026-04-23 02:21 39.12379 -75.31724 32581 ft 475 kts 229°
2026-04-23 02:21 39.09934 -75.34578 32945 ft 474 kts 229°
2026-04-23 02:22 39.07499 -75.37430 33328 ft 472 kts 229°
2026-04-23 02:22 39.04975 -75.40157 33707 ft 477 kts 221°
2026-04-23 02:22 39.02118 -75.42386 34068 ft 485 kts 212°
2026-04-23 02:22 38.98968 -75.44001 34375 ft 491 kts 201°
2026-04-23 02:23 38.95616 -75.44945 34704 ft 496 kts 191°
2026-04-23 02:23 38.92186 -75.45420 35030 ft 496 kts 190°
2026-04-23 02:23 38.88755 -75.45886 35343 ft 495 kts 190°
2026-04-23 02:23 38.85338 -75.46360 35664 ft 493 kts 190°
2026-04-23 02:24 38.81925 -75.46839 35952 ft 493 kts 190°
2026-04-23 02:24 38.75164 -75.47790 36042 ft 492 kts 190°
2026-04-23 02:25 38.68359 -75.48726 36044 ft 491 kts 190°
2026-04-23 02:25 38.61562 -75.49645 36037 ft 491 kts 190°
2026-04-23 02:26 38.54769 -75.50565 36043 ft 491 kts 190°
2026-04-23 02:26 38.47977 -75.51486 36054 ft 491 kts 190°
2026-04-23 02:27 38.41186 -75.52400 36035 ft 490 kts 189°
2026-04-23 02:27 38.34565 -75.54095 36046 ft 481 kts 204°
2026-04-23 02:28 38.28698 -75.57909 36047 ft 469 kts 220°
2026-04-23 02:28 38.23327 -75.62610 36028 ft 469 kts 220°
2026-04-23 02:29 38.17943 -75.67298 36030 ft 469 kts 220°
2026-04-23 02:29 38.12552 -75.71960 36032 ft 469 kts 220°
2026-04-23 02:30 38.07165 -75.76629 36032 ft 469 kts 220°
2026-04-23 02:30 38.01784 -75.81294 36004 ft 469 kts 219°